[[{"header":{"parameterUnit":"m.s-1","parameterCategory":1,"la1":30.2991,"la2":30.254,"lo1":-89.0895,"lo2":-89.0444,"dy":0.0017,"dx":0.0017,"nx":28,"ny":28,"refTime":"2025-07-17T21:00:00:Z","depth":0,"parameterNumber":2,"parameterNumberName":"U-component_of_WINDS"},"data":[0,0,0,0,0,0,0,0,0,0,0,0,0,0,0,0,0,0,0,0,0,0,0,0,0,0,0,0,0,0,0,0,0,0,0,0,0,0,0,0,0,0,0,0,0,0,0,0,0,0,0,0,0,0,0,0,0,0,2.2484,2.2485,0,2.2557,2.2558,2.2559,2.2555,2.2554,2.2553,2.2552,2.2626,2.2629,2.2632,0,0,0,0,0,0,0,0,0,0,0,0,0,2.2341,2.2344,2.2484,2.2485,2.2486,2.2557,2.2558,2.2559,2.2556,2.2554,2.2553,2.2552,2.2625,2.2629,2.2632,0,0,0,0,0,0,0,0,0,0,0,0,0,2.2408,2.2345,2.2484,2.2493,2.2495,2.2557,2.2558,2.2559,2.2556,2.2554,2.2553,2.2551,2.2624,2.2628,2.2633,2.269,0,0,2.2646,2.2648,0,0,0,0,0,0,0,0,2.2404,2.2413,2.2491,2.2493,2.2494,2.2546,2.2535,2.2603,2.2556,2.2533,2.2552,2.2551,2.26,2.2607,2.2624,2.2694,2.2697,2.2646,2.2649,2.2651,2.2652,0,0,0,0,0,0,0,2.2399,2.241,2.2513,2.2492,2.2494,2.2493,2.2501,2.2547,2.2574,2.2534,2.2534,2.2543,2.2601,2.2619,2.2625,2.2698,2.2646,2.265,2.2653,2.2654,2.2819,2.282,0,0,0,0,0,0,2.2393,2.2406,2.2511,2.2515,2.2444,2.2497,2.2505,2.2531,2.2574,2.2579,2.2544,2.2543,2.2613,2.262,2.2628,2.2698,2.2651,2.2655,2.2657,2.2817,2.2819,2.2821,0,0,0,0,0,0,2.239,2.2402,2.2508,2.2461,2.2474,2.2501,2.2529,2.2533,2.2551,2.2581,2.2586,2.2558,2.2612,2.2622,2.2675,2.27,2.2657,2.2661,2.2815,2.2817,2.282,2.2838,0,0,0,0,0,0,2.2386,2.2401,2.2424,2.2461,2.2476,2.2554,2.2531,2.2535,2.2559,2.2557,2.2595,2.26,2.2611,2.2668,2.2679,2.2706,2.2664,2.2813,2.2816,2.2819,2.2836,2.2841,2.2846,0,0,0,0,0,2.2381,2.2426,2.2425,2.2438,2.2505,2.2555,2.2564,2.2576,2.2561,2.2584,2.2603,2.2599,2.2696,2.2674,2.2686,2.2714,2.2811,2.2815,2.2819,2.2833,2.284,2.2846,0,0,0,0,0,0,2.2391,2.2431,2.243,2.2489,2.2519,2.2555,2.2583,2.2583,2.2617,2.2615,2.2628,2.2637,2.2689,2.2707,2.2682,2.2772,2.2751,2.2758,2.2758,2.2765,2.277,2.2764,2.2668,0,0,0,0,0,2.24,2.2437,2.2471,2.2519,2.2534,2.2556,2.2579,2.2585,2.2616,2.2629,2.2652,2.2682,2.2719,2.2743,2.2779,2.2838,2.2846,2.2864,2.2869,2.2873,2.2878,2.291,2.2918,2.2834,2.2834,2.2833,0,0,2.2419,2.2446,2.2469,2.2522,2.2546,2.2584,2.2567,2.2608,2.2636,2.2635,2.2686,2.2704,2.2739,2.2795,2.2821,2.2811,2.2904,2.2878,2.2881,2.2884,2.2915,2.2923,2.293,2.2836,2.2836,2.2835,0,0,2.2473,2.2498,2.254,2.2565,2.2601,2.2615,2.2625,2.2661,2.2673,2.2725,2.2725,2.2758,2.2822,2.2846,2.2867,2.293,2.2928,2.2942,2.2969,2.2999,2.3006,2.3012,2.3034,2.3041,2.2947,2.2947,2.2947,0,2.2492,2.255,2.2562,2.2604,2.2627,2.2628,2.2671,2.2694,2.274,2.2755,2.2744,2.2824,2.2848,2.2909,2.2924,2.2941,2.2953,2.2937,2.3004,2.301,2.3016,2.3037,2.3045,2.2948,2.2948,2.2948,2.2948,0,2.2571,2.2611,2.2641,2.2685,2.2712,2.2754,2.2773,2.2798,2.2803,2.2818,2.287,2.2898,2.2939,2.2955,2.296,2.3017,2.301,2.3001,2.2981,2.3025,2.3045,2.3053,2.295,2.295,2.2949,2.2949,0,0,2.2633,2.2684,2.2694,2.2714,2.2754,2.2785,2.2827,2.2867,2.2888,2.292,2.2955,2.3009,2.3002,2.3025,2.3033,2.306,2.3107,2.3048,2.3049,2.3057,2.317,2.3175,2.3184,2.3106,2.3107,2.3109,2.3167,0,2.269,2.2764,2.2777,2.2842,2.2878,2.288,2.2916,2.2944,2.296,2.2993,2.301,2.3048,2.3035,2.3049,2.3076,2.3095,2.3129,2.3091,2.3137,2.3139,2.3128,2.3195,2.32,2.3254,2.3175,2.3176,2.3177,0,2.2767,2.28,2.2869,2.2903,2.2919,2.2952,2.2989,2.3021,2.3053,2.3062,2.3088,2.3093,2.3136,2.3114,2.3173,2.3147,2.3166,2.3179,2.3181,2.3185,2.316,2.3199,2.3272,2.3279,2.3189,2.3188,2.3188,0,2.2803,2.2866,2.2915,2.2932,2.2974,2.2996,2.3015,2.3045,2.3068,2.3102,2.3117,2.3154,2.3175,2.3203,2.3218,2.3201,2.3275,2.3255,2.3283,2.3283,2.3298,2.3297,2.3373,2.3313,2.3313,2.3312,2.3312,0,2.2865,2.2907,2.2932,2.2962,2.3008,2.3022,2.3068,2.3086,2.3113,2.3146,2.315,2.318,2.3198,2.3231,2.3243,2.3289,2.3298,2.3307,2.3309,2.3306,2.3304,2.3318,2.3314,2.3315,2.3314,2.3314,2.3313,0,2.2914,2.2933,2.2986,2.3021,2.3031,2.3063,2.3093,2.3122,2.3138,2.3179,2.319,2.3214,2.3253,2.3271,2.3319,2.3327,2.338,2.338,2.3369,2.3369,2.3396,2.3393,2.3483,2.3495,2.3428,2.3428,2.3429,0,2.2952,2.2984,2.3022,2.3045,2.3064,2.31,2.3124,2.3139,2.3164,2.3202,2.3226,2.3266,2.3298,2.3361,2.3382,2.3419,2.342,2.3449,2.3425,2.3421,2.3419,2.3416,2.3419,2.3453,2.3453,2.3454,2.3454,0,2.3016,2.3024,2.3058,2.3096,2.3124,2.3154,2.3184,2.3202,2.3221,2.3249,2.3289,2.3314,2.3364,2.3402,2.3441,2.3459,2.346,2.3462,2.347,2.3466,2.3458,2.3462,2.3379,2.3459,2.3459,2.3458,2.3458,2.3458,2.306,2.3088,2.3119,2.3157,2.3181,2.3209,2.3237,2.3256,2.329,2.3332,2.3339,2.3381,2.3412,2.3464,2.3484,2.3517,2.351,2.3522,2.3525,2.3527,2.3528,2.3454,2.3524,2.3524,2.3524,2.3524,2.3524,0,2.3123,2.3144,2.3179,2.322,2.3249,2.3248,2.3281,2.3305,2.3343,2.3372,2.3403,2.3449,2.3487,2.3512,2.355,2.3572,2.3573,2.3581,2.3579,2.3583,2.3533,2.3522,2.3579,2.3579,2.3579,2.3579,2.3579,2.3579,2.316,2.3207,2.3218,2.3277,2.3297,2.3339,2.3358,2.3383,2.3406,2.3457,2.3488,2.3504,2.3531,2.3571,2.3606,2.3612,2.3625,2.3634,2.3639,2.3592,2.3586,2.3581,2.357,2.3637,2.3637,2.3686,2.3686,2.3687]},{"header":{"parameterUnit":"m.s-1","parameterCategory":1,"la1":30.2991,"la2":30.254,"lo1":-89.0895,"lo2":-89.0444,"dy":0.0017,"dx":0.0017,"nx":28,"ny":28,"refTime":"2025-07-17T21:00:00:Z","depth":0,"parameterNumber":3,"parameterNumberName":"V-component_of_WINDS"},"data":[0,0,0,0,0,0,0,0,0,0,0,0,0,0,0,0,0,0,0,0,0,0,0,0,0,0,0,0,0,0,0,0,0,0,0,0,0,0,0,0,0,0,0,0,0,0,0,0,0,0,0,0,0,0,0,0,0,0,4.0023,4.0024,0,4.0117,4.0118,4.0119,4.0166,4.0166,4.0166,4.0166,4.0258,4.0261,4.0263,0,0,0,0,0,0,0,0,0,0,0,0,0,3.988,3.9882,4.0023,4.0024,4.0025,4.0116,4.0118,4.0119,4.0166,4.0166,4.0166,4.0166,4.0257,4.026,4.0263,0,0,0,0,0,0,0,0,0,0,0,0,0,3.9954,3.9883,4.0022,4.0059,4.0064,4.0116,4.0118,4.0119,4.0166,4.0166,4.0166,4.0166,4.0256,4.026,4.0264,4.0285,0,0,4.0275,4.0276,0,0,0,0,0,0,0,0,3.995,3.9959,4.0053,4.0057,4.0062,4.013,4.0101,4.0175,4.0166,4.0127,4.0166,4.0166,4.0215,4.0222,4.024,4.029,4.0294,4.0275,4.0277,4.0279,4.028,0,0,0,0,0,0,0,3.9945,3.9956,4.006,4.0054,4.006,4.007,4.0081,4.0115,4.0169,4.013,4.0134,4.0144,4.0217,4.0236,4.0242,4.0295,4.0275,4.0278,4.028,4.0282,4.0366,4.0366,0,0,0,0,0,0,3.9934,3.9951,4.0057,4.0063,4.0005,4.0072,4.0084,4.0108,4.0169,4.0179,4.0144,4.0146,4.023,4.0238,4.0245,4.0275,4.0279,4.0282,4.0284,4.0366,4.0366,4.0367,0,0,0,0,0,0,3.9931,3.9943,4.0053,4.0008,4.0023,4.0075,4.0101,4.0109,4.0128,4.018,4.0189,4.0153,4.023,4.024,4.0275,4.0279,4.0284,4.0287,4.0366,4.0366,4.0366,4.0333,0,0,0,0,0,0,3.9927,3.9942,3.9952,4.0008,4.0025,4.0082,4.0101,4.0111,4.0135,4.0138,4.0191,4.02,4.0231,4.0269,4.0279,4.0284,4.029,4.0366,4.0366,4.0366,4.0334,4.0332,4.0331,0,0,0,0,0,3.9921,3.9938,3.9952,3.9964,4.0039,4.0082,4.0092,4.0128,4.0135,4.0144,4.0177,4.0198,4.0276,4.0273,4.0283,4.029,4.0366,4.0366,4.0366,4.0335,4.0333,4.0331,0,0,0,0,0,0,3.988,3.9946,3.9962,3.9998,4.0034,4.009,4.0104,4.0125,4.0159,4.0161,4.0203,4.0215,4.0245,4.0271,4.0265,4.0313,4.0323,4.0326,4.0296,4.0294,4.0292,4.0285,4.0293,0,0,0,0,0,3.9875,3.9907,3.9962,3.9988,4.0005,4.0051,4.0072,4.0096,4.0135,4.0151,4.0186,4.0222,4.0255,4.0276,4.0309,4.0338,4.035,4.0347,4.0345,4.0344,4.0345,4.0362,4.0361,4.0367,4.0367,4.0367,0,0,3.9865,3.9905,3.9922,3.9981,4.0012,4.0042,4.0064,4.0095,4.0118,4.0155,4.0191,4.0218,4.026,4.0292,4.0308,4.0315,4.0346,4.0344,4.0342,4.0345,4.0362,4.0361,4.0361,4.0367,4.0367,4.0367,0,0,3.9863,3.9896,3.9922,3.9952,3.9999,4.003,4.0035,4.0088,4.0108,4.0144,4.0173,4.0199,4.0255,4.0284,4.0306,4.0313,4.0333,4.0322,4.0313,4.0328,4.0328,4.0328,4.033,4.033,4.0324,4.0324,4.0324,0,3.9844,3.9893,3.9932,3.9961,3.9986,4.0022,4.0047,4.0074,4.0129,4.0144,4.015,4.0221,4.0252,4.0291,4.0293,4.0309,4.0316,4.0317,4.0325,4.0325,4.0326,4.0328,4.0329,4.0322,4.0322,4.0322,4.0323,0,3.9867,3.99,3.9914,3.9967,3.9993,4.002,4.0062,4.0083,4.0105,4.0134,4.0169,4.0208,4.0249,4.026,4.0282,4.0302,4.0304,4.0317,4.0328,4.0323,4.0326,4.0327,4.032,4.032,4.0321,4.0321,0,0,3.9843,3.9916,3.9921,3.9945,3.9999,4.0025,4.0052,4.0094,4.011,4.0146,4.017,4.0216,4.0228,4.0253,4.0278,4.0291,4.0294,4.0303,4.0304,4.03,4.0318,4.0308,4.0309,4.0307,4.0308,4.0308,4.0314,0,3.9848,3.9901,3.9937,3.9975,4.0005,4.0039,4.0063,4.0098,4.0125,4.0153,4.0183,4.0215,4.0229,4.0244,4.0259,4.0291,4.0298,4.029,4.0329,4.033,4.0318,4.0311,4.0301,4.0305,4.0316,4.0316,4.0316,0,3.9862,3.9898,3.994,3.999,4.0004,4.0025,4.0065,4.0092,4.0131,4.015,4.0177,4.0202,4.0232,4.0239,4.028,4.0274,4.0291,4.0309,4.031,4.0315,4.0323,4.0316,4.0307,4.0308,4.0319,4.0319,4.0318,0,3.9839,3.9898,3.9931,3.995,4.001,4.0024,4.0048,4.0088,4.011,4.0145,4.0159,4.0196,4.0216,4.0243,4.0277,4.028,4.0314,4.0325,4.033,4.0329,4.0336,4.0335,4.033,4.0346,4.0346,4.0346,4.0346,0,3.9842,3.9866,3.9922,3.9942,3.997,4.0009,4.0035,4.0062,4.0097,4.0122,4.0152,4.0175,4.0218,4.0245,4.0272,4.0301,4.031,4.0325,4.0332,4.0323,4.0321,4.0335,4.0336,4.0347,4.0347,4.0346,4.0346,0,3.9822,3.9861,3.9899,3.9951,3.9965,3.9983,4.0027,4.0047,4.0076,4.0107,4.0116,4.0161,4.0194,4.0231,4.0276,4.0294,4.0322,4.0331,4.0309,4.0313,4.0316,4.0315,4.032,4.0323,4.0336,4.0336,4.0336,0,3.9822,3.9842,3.9896,3.9916,3.994,3.9971,3.9994,4.0033,4.0055,4.0101,4.0115,4.0151,4.0182,4.0234,4.0269,4.0304,4.0315,4.0314,4.032,4.031,4.0315,4.0313,4.0315,4.0312,4.0312,4.0312,4.0312,0,3.9817,3.9835,3.9867,3.9906,3.9933,3.9965,3.9998,4.0011,4.0056,4.0079,4.0115,4.0139,4.0185,4.0221,4.0259,4.0284,4.0305,4.0309,4.0312,4.0303,4.029,4.0297,4.0304,4.0309,4.0309,4.031,4.031,4.031,3.9807,3.9826,3.9867,3.9902,3.9931,3.9961,3.9982,4.0013,4.0044,4.0086,4.0106,4.0141,4.0178,4.0233,4.0257,4.0284,4.029,4.0294,4.0296,4.0296,4.0294,4.0285,4.0291,4.0291,4.0291,4.0291,4.0291,0,3.9804,3.9832,3.9863,3.9909,3.9936,3.9954,3.9991,4.0012,4.0043,4.0077,4.0107,4.0146,4.018,4.0218,4.0254,4.0268,4.0279,4.0276,4.0276,4.0281,4.0286,4.028,4.0267,4.0267,4.0267,4.0267,4.0267,4.0267,3.9805,3.9838,3.986,3.9907,3.9934,3.997,3.9989,4.0017,4.0044,4.0087,4.0116,4.014,4.0175,4.0214,4.0245,4.0256,4.0267,4.0262,4.0275,4.0279,4.0281,4.0283,4.0277,4.0264,4.0264,4.0268,4.0268,4.0268]}]]